Find Starlink 31699

NORAD ID: 59551 Int'l Des: 2024-074 Owner: SPXS Country: US Constellation: starlink operational
LEOCIRCULAR

現在のビュー

3D地球を読み込み中...

About Starlink 31699

Starlink 31699 (NORAD 59551) is a starlink constellation satellite (v2 mini) launched Apr 18, 2024 by SPXS of US. It operates in LEO, CIRCULAR orbit with a mass of 730.00 kg.

次回通過

Passes for default location (London). Set your location on the main map for personalized predictions.

高度履歴

Loading altitude history...

軌道要素

1 59551U 24074T 26227.10709939 -.00001604 00000-0 -48794-4 0 9998
2 59551 43.0024 168.7417 0001340 276.1751 83.8948 15.27569989130242
Epoch: Aug 15, 2026 • Age: 13 hours

現在のステータス

高度 486.6 km
遠地点 / 近地点 N/A
速度 7.63 km/s
衛星直下点 40.47°N, 82.18°E
打ち上げ日 Apr 18, 2024
運用期間 2.3 years
タイプ internet

技術仕様

分類 Payload
質量 730.00 kg
乾燥質量 700.00 kg
総質量 730.00 kg
長さ 0.30 m
直径 4.10 m
スパン 29.00 m
形状 Box + pan
製造者 SPXS
バスタイプ Starlink V2M
フェーズステータス In Orbit
所有者/国 SPXS/US

Most Searched